Rt 13 @ US Weigh Station current weather conditions

sailwx.info

Wind from 261

Air temperature 30.9° C
Dewpoint 22.5° C

Last reported at 2020-Jun-03 19:00 UTC.
Time now 2020-Jun-03 19:23 UTC

Location: N 37°59' W 075°32'.
View on Google Maps.

See reports from other nearby stations

  
Tides and Currents Weather Stations Pressure Air Temp Water Temp Dewpoint Dewpoint Depression Visibility Wind Speed Wind Dir Waves Ship Positions
date/time (UTC)wind fromknots sea level pressurealtimeterstation pressurevisibilityair tempwater tempwave heightnotes
2020-Jun-03 19:00 261 30.9
2020-Jun-03 18:40 280 30.7
2020-Jun-03 18:20 263 30.4
2020-Jun-03 18:00 267 30.3
2020-Jun-03 17:40 257 30.2
2020-Jun-03 17:20 263 29.8
2020-Jun-03 17:00 288 29.8
2020-Jun-03 16:40 263 29.4
2020-Jun-03 16:20 256 28.9
2020-Jun-03 16:00 291 29.5
2020-Jun-03 15:40 260 29.5
2020-Jun-03 15:20 278 28.3
2020-Jun-03 15:00 256 28.6
2020-Jun-03 14:40 282 27.4
2020-Jun-03 14:20 280 27.1
2020-Jun-03 14:00 260 26.3
2020-Jun-03 13:40 301 25.6
2020-Jun-03 13:20 256 25.6
2020-Jun-03 13:00 271 25.0
2020-Jun-03 12:40 281 24.8
2020-Jun-03 12:20 299 24.1
2020-Jun-03 12:00 265 23.9
2020-Jun-03 11:40 254 23.2
2020-Jun-03 11:20 271 23.0
2020-Jun-03 11:00 251 22.7
2020-Jun-03 10:40 275 22.4
2020-Jun-03 10:20 250 22.3
2020-Jun-03 10:00 267 22.0
2020-Jun-03 09:40 277 22.1
2020-Jun-03 09:20 265 22.2
2020-Jun-03 09:00 251 22.3
2020-Jun-03 08:40 288 22.5
2020-Jun-03 08:20 278 22.6
2020-Jun-03 08:00 270 22.8
2020-Jun-03 07:40 289 22.9
2020-Jun-03 07:20 270 23.2
2020-Jun-03 07:00 261 23.5
2020-Jun-03 06:40 270 23.9
2020-Jun-03 06:20 248 24.3
2020-Jun-03 06:00 265 24.7
2020-Jun-03 05:40 253 24.8
2020-Jun-03 05:20 261 24.3
2020-Jun-03 05:00 260 23.4
2020-Jun-03 04:40 237 23.2
2020-Jun-03 04:20 220 22.9
2020-Jun-03 04:00 247 22.2
2020-Jun-03 03:40 237 21.9
2020-Jun-03 03:20 229 21.5
2020-Jun-03 03:00 226 21.1
2020-Jun-03 02:40 193 21.2
2020-Jun-03 02:20 188 21.0
2020-Jun-03 02:00 175 21.0
2020-Jun-03 01:40 195 20.9
2020-Jun-03 01:20 195 20.5
2020-Jun-03 01:00 174 20.6
2020-Jun-03 00:40 068 20.7
2020-Jun-03 00:20 181 21.2
2020-Jun-03 00:00 172 21.3
2020-Jun-02 23:40 206 21.6
2020-Jun-02 23:20 240 22.2
2020-Jun-02 23:00 244 22.7
2020-Jun-02 22:40 247 22.6
2020-Jun-02 22:20 250 23.2
2020-Jun-02 22:00 248 23.4
2020-Jun-02 21:40 250 22.9
2020-Jun-02 21:20 251 23.3
2020-Jun-02 21:00 285 24.1
2020-Jun-02 20:40 271 23.8
2020-Jun-02 20:20 299 24.3
2020-Jun-02 20:00 305 23.7
2020-Jun-02 19:40 305 24.7
2020-Jun-02 19:20 280 23.9
2020-Jun-02 19:00 287 23.3
2020-Jun-02 18:40 322 23.2
2020-Jun-02 18:20 359 23.2
2020-Jun-02 18:00 263 22.9
2020-Jun-02 17:40 280 21.8
2020-Jun-02 17:20 260 21.4
2020-Jun-02 17:00 254 21.0
2020-Jun-02 16:40 261 21.3
2020-Jun-02 16:20 265 21.3
2020-Jun-02 16:00 260 21.2
2020-Jun-02 15:40 271 20.9
2020-Jun-02 15:20 261 20.4
2020-Jun-02 15:00 256 20.4
2020-Jun-02 14:40 265 20.3
2020-Jun-02 14:20 274 20.4
2020-Jun-02 14:00 264 20.8
2020-Jun-02 13:40 254 20.9
2020-Jun-02 13:20 282 21.4
2020-Jun-02 13:00 271 21.2
2020-Jun-02 12:40 258 20.7
2020-Jun-02 12:20 268 20.9
2020-Jun-02 12:00 253 19.8
2020-Jun-02 11:40 226 17.6
2020-Jun-02 11:20 239 16.3
2020-Jun-02 11:00 216 15.3
2020-Jun-02 10:40 222 14.4
2020-Jun-02 10:20 236 13.9
2020-Jun-02 10:00 229 13.6
2020-Jun-02 09:40 209 13.0
2020-Jun-02 09:20 217 12.7
2020-Jun-02 09:00 212 13.0
2020-Jun-02 08:40 198 13.2
2020-Jun-02 08:20 220 13.3
2020-Jun-02 08:00 206 13.3
2020-Jun-02 07:40 185 13.9
2020-Jun-02 07:20 246 13.9
2020-Jun-02 07:00 215 14.4
2020-Jun-02 06:40 243 14.5
2020-Jun-02 06:20 246 14.5
2020-Jun-02 06:00 244 14.3
2020-Jun-02 05:40 244 14.3
2020-Jun-02 05:20 237 14.4
2020-Jun-02 05:00 224 14.6
2020-Jun-02 04:40 254 15.0
2020-Jun-02 04:20 236 15.1
2020-Jun-02 04:00 253 15.2
2020-Jun-02 03:40 263 15.5
2020-Jun-02 03:20 227 14.6
2020-Jun-02 03:00 222 14.6
2020-Jun-02 02:40 234 14.6
2020-Jun-02 02:20 232 15.1
2020-Jun-02 02:00 233 15.4
2020-Jun-02 01:40 236 15.6
2020-Jun-02 01:20 241 15.7
2020-Jun-02 01:00 263 15.9
2020-Jun-02 00:40 248 16.6
2020-Jun-02 00:20 244 17.4
2020-Jun-02 00:00 247 18.2
2020-Jun-01 23:40 256 19.2
2020-Jun-01 23:20 282 20.0
2020-Jun-01 23:00 237 20.5
2020-Jun-01 22:40 316 20.9
2020-Jun-01 22:20 328 21.2
2020-Jun-01 22:00 352 22.2
2020-Jun-01 21:40 296 21.6
2020-Jun-01 21:20 316 22.2
2020-Jun-01 21:00 315 21.5
2020-Jun-01 20:40 203 20.8
2020-Jun-01 20:20 219 19.3
2020-Jun-01 20:00 192 20.2
2020-Jun-01 19:40 192 18.9
2020-Jun-01 19:20 217 18.7
2020-Jun-01 19:00 206 19.5